User: anonymous   Login
Location: Tabor
(49.4170°N, 14.6670°E)
Time: 14:23:26
(UTC+01:00)
Language:

ISS - Orbit

View from above orbital plane
View from above orbital plane
View from above satellite
View from above satellite

Ground track
Ground track

The orbit data is extracted from the following two-line orbital elements,

1 25544U 98067A   24059.38110244  .00017250  00000-0  31546-3 0  9990
2 25544  51.6398 139.5586 0005668 300.9145 182.9674 15.49450200441521
Epoch (UTC): 28 February 2024 09:08:47
Eccentricity: 0.0005668
inclination: 51.6398°
perigee height: 414 km
apogee height: 422 km
right ascension of ascending node: 139.5586°
argument of perigee: 300.9145°
revolutions per day: 15.49450200
mean anomaly at epoch: 182.9674°
orbit number at epoch: 44152

The dashed part of the orbit path shows where the satellite is in the earth's shadow,  

DLR